Satellite: MET-3/5
Catalog number: 21655
Epoch time:      10048.90900504
Element set:     739
Inclination:      082.5559 deg
RA of node:       032.9006 deg
Eccentricity:    0.0012361
Arg of perigee:   290.1715 deg
Mean anomaly:     069.8104 deg
Mean motion:   13.17023753 rev/day
Decay rate:        5.1e-07 rev/day^2
Epoch rev:           88997
Checksum:              296

Satellite: MET-2/21
Catalog number: 22782
Epoch time:      10048.90176136
Element set:     699
Inclination:      082.5524 deg
RA of node:       347.0793 deg
Eccentricity:    0.0022979
Arg of perigee:   021.4008 deg
Mean anomaly:     338.8095 deg
Mean motion:   13.83642951 rev/day
Decay rate:        7.9e-07 rev/day^2
Epoch rev:           83158
Checksum:              329

Satellite: OKEAN-4
Catalog number: 23317
Epoch time:      10049.68888983
Element set:     157
Inclination:      082.5392 deg
RA of node:       104.4677 deg
Eccentricity:    0.0020337
Arg of perigee:   273.1386 deg
Mean anomaly:     086.7503 deg
Mean motion:   14.82769538 rev/day
Decay rate:       3.34e-06 rev/day^2
Epoch rev:           82889
Checksum:              345

Satellite: NOAA-14
Catalog number: 23455
Epoch time:      10049.45799864
Element set:     952
Inclination:      098.8863 deg
RA of node:       130.9991 deg
Eccentricity:    0.0008882
Arg of perigee:   208.7757 deg
Mean anomaly:     151.2927 deg
Mean motion:   14.13779100 rev/day
Decay rate:        2.2e-07 rev/day^2
Epoch rev:           78072
Checksum:              341

Satellite: NOAA-15
Catalog number: 25338
Epoch time:      10049.19419780
Element set:     271
Inclination:      098.6098 deg
RA of node:       038.3112 deg
Eccentricity:    0.0011541
Arg of perigee:   064.3466 deg
Mean anomaly:     295.8908 deg
Mean motion:   14.24807829 rev/day
Decay rate:       1.12e-06 rev/day^2
Epoch rev:           61180
Checksum:              305

Satellite: RESURS
Catalog number: 25394
Epoch time:      10049.12488842
Element set:     434
Inclination:      098.3152 deg
RA of node:       073.6354 deg
Eccentricity:    0.0001052
Arg of perigee:   170.0891 deg
Mean anomaly:     190.0306 deg
Mean motion:   14.24193135 rev/day
Decay rate:        3.0e-08 rev/day^2
Epoch rev:           60340
Checksum:              254

Satellite: FENGYUN1
Catalog number: 25730
Epoch time:      10045.95387413
Element set:     973
Inclination:      098.7754 deg
RA of node:       014.1424 deg
Eccentricity:    0.0023258
Arg of perigee:   251.3712 deg
Mean anomaly:     108.4972 deg
Mean motion:   14.08168687 rev/day
Decay rate:       1.19e-06 rev/day^2
Epoch rev:           55448
Checksum:              310

Satellite: OKEAN-0
Catalog number: 25860
Epoch time:      10049.11448979
Element set:     916
Inclination:      097.8181 deg
RA of node:       025.9528 deg
Eccentricity:    0.0001849
Arg of perigee:   090.5758 deg
Mean anomaly:     269.5678 deg
Mean motion:   14.73614529 rev/day
Decay rate:       1.03e-06 rev/day^2
Epoch rev:           56936
Checksum:              343

Satellite: NOAA-16
Catalog number: 26536
Epoch time:      10049.15637775
Element set:     749
Inclination:      099.1768 deg
RA of node:       063.7838 deg
Eccentricity:    0.0009843
Arg of perigee:   313.9018 deg
Mean anomaly:     046.1351 deg
Mean motion:   14.12548248 rev/day
Decay rate:       3.13e-06 rev/day^2
Epoch rev:           48502
Checksum:              323

Satellite: NOAA-17
Catalog number: 27453
Epoch time:      10049.47196509
Element set:     755
Inclination:      098.4479 deg
RA of node:       104.6078 deg
Eccentricity:    0.0012540
Arg of perigee:   122.1370 deg
Mean anomaly:     238.1032 deg
Mean motion:   14.24132671 rev/day
Decay rate:       2.12e-06 rev/day^2
Epoch rev:           39780
Checksum:              288

Satellite: NOAA-18
Catalog number: 28654
Epoch time:      10049.48256680
Element set:     241
Inclination:      098.9386 deg
RA of node:       356.1660 deg
Eccentricity:    0.0014817
Arg of perigee:   031.2277 deg
Mean anomaly:     328.9786 deg
Mean motion:   14.11328591 rev/day
Decay rate:       2.22e-06 rev/day^2
Epoch rev:           24469
Checksum:              326

Satellite: NOAA-19
Catalog number: 33591
Epoch time:      10049.51564461
Element set:     443
Inclination:      098.7779 deg
RA of node:       354.2307 deg
Eccentricity:    0.0013206
Arg of perigee:   265.5880 deg
Mean anomaly:     094.3761 deg
Mean motion:   14.11026268 rev/day
Decay rate:       -5.3e-07 rev/day^2
Epoch rev:            5317
Checksum:              302

/EX
SB KEPS @ AMSAT  $ORB10049.M
Orbital Elements  10049.MISC

HR AMSAT ORBITAL ELEMENTS FOR MANNED AND MISCELLANEOUS SATELLITES
FROM WA5QGD FORT WORTH,TX February 18, 2010
Send Subscribe/unsubscribe to KEPS at http://www.amsat.org/mailman/listinfo/kep
BID: ORB10049.M
TO ALL RADIO AMATEURS BT

Satellite: HUBBLE
Catalog number: 20580
Epoch time:      10047.16192774
Element set:    0517
Inclination:      028.4704 deg
RA of node:       309.9015 deg
Eccentricity:    0.0003209
Arg of perigee:   357.0922 deg
Mean anomaly:     002.9784 deg
Mean motion:   15.00896951 rev/day
Decay rate:       6.48e-06 rev/day^2
Epoch rev:           88654
Checksum:              303

